GOLDWX Weather Reports


Display with metric or nautical units.
time (UTC)temp
F
wind
direction
speed
MPH
gust
MPH
rain 1hr
in
rain 24hr
in
rain mn
in
humidity
%
barometer
mb
20260506091059 52 180 3.0 4.0 0.00 0.00 0.00 55 1014.9
20260506090057 52 180 4.0 5.0 0.00 0.00 0.00 55 1015.0
20260506085556 53 180 5.0 6.0 0.00 0.00 0.00 54 1014.9
20260506084555 53 180 5.0 6.0 0.00 0.00 0.00 53 1014.9
20260506084054 54 180 5.0 5.0 0.00 0.00 0.00 51 1014.8
20260506083052 55 180 2.0 2.0 0.00 0.00 0.00 45 1014.9
20260506082551 56 0 0.0 1.0 0.00 0.00 0.00 44 1014.8
20260506081550 56 315 2.0 4.0 0.00 0.00 0.00 43 1014.8
20260506081049 57 301 4.0 5.0 0.00 0.00 0.00 43 1014.8
20260506073042 56 357 9.0 12.0 0.00 0.00 0.00 43 1014.8
20260506072541 56 0 11.0 11.0 0.00 0.00 0.00 43 1014.9
20260506071540 56 0 5.0 6.0 0.00 0.00 0.00 42 1014.9
20260506071039 56 0 4.0 7.0 0.00 0.00 0.00 42 1014.9
20260506061528 55 316 3.0 7.0 0.00 0.00 0.00 41 1014.6
20260506061028 55 322 7.0 7.0 0.00 0.00 0.00 41 1014.5
20260506051017 53 206 3.0 7.0 0.00 0.00 0.00 43 1014.2
20260506044512 53 180 5.0 7.0 0.00 0.00 0.00 42 1013.9
20260506044012 54 180 6.0 8.0 0.00 0.00 0.00 41 1013.8
20260506043010 55 180 6.0 7.0 0.00 0.00 0.00 40 1013.7
20260506042509 55 181 4.0 6.0 0.00 0.00 0.00 39 1013.6
20260506041507 57 180 5.0 5.0 0.00 0.00 0.00 37 1013.4
20260506041007 57 179 3.0 3.0 0.00 0.00 0.00 36 1013.3
20260506040006 59 180 2.0 2.0 0.00 0.00 0.00 32 1013.2
20260506035504 60 309 2.0 2.0 0.00 0.00 0.00 31 1013.1
20260506034502 60 315 1.0 2.0 0.00 0.00 0.00 30 1012.8
20260506034002 60 315 2.0 2.0 0.00 0.00 0.00 31 1012.8
20260506032459 61 346 2.0 4.0 0.00 0.00 0.00 30 1012.5
20260506031457 62 357 3.0 5.0 0.00 0.00 0.00 30 1012.4
20260506030957 62 345 4.0 7.0 0.00 0.00 0.00 30 1012.3
20260506025452 62 340 4.0 8.0 0.00 0.00 0.00 29 1012.1
20260506024450 63 356 5.0 10.0 0.00 0.00 0.00 29 1011.9
20260506023950 63 350 7.0 10.0 0.00 0.00 0.00 29 1011.8
20260506022449 65 349 11.0 15.0 0.00 0.00 0.00 28 1011.6
20260506021445 65 340 8.0 14.0 0.00 0.00 0.00 28 1011.4
20260506020946 66 353 14.0 15.0 0.00 0.00 0.00 28 1011.4
20260506015943 66 342 10.0 17.0 0.00 0.00 0.00 27 1011.2
20260506015442 66 351 11.0 18.0 0.00 0.00 0.00 26 1011.1
20260506014439 67 332 16.0 16.0 0.00 0.00 0.00 26 1010.9
20260506013939 67 340 13.0 18.0 0.00 0.00 0.00 25 1010.8
20260506012937 68 346 9.0 13.0 0.00 0.00 0.00 22 1010.8
20260506012436 68 319 6.0 10.0 0.00 0.00 0.00 21 1010.8
20260506011434 68 357 11.0 12.0 0.00 0.00 0.00 21 1010.7
20260506010934 69 323 5.0 9.0 0.00 0.00 0.00 21 1010.7
20260506005932 69 40 6.0 12.0 0.00 0.00 0.00 20 1010.7
20260506005431 70 0 12.0 14.0 0.00 0.00 0.00 19 1010.6
20260506004429 71 357 5.0 11.0 0.00 0.00 0.00 20 1010.6
20260506003929 71 346 7.0 14.0 0.00 0.00 0.00 20 1010.5
20260506002927 73 344 7.0 9.0 0.00 0.00 0.00 20 1010.4
20260506002426 73 358 4.0 10.0 0.00 0.00 0.00 19 1010.4
20260506001424 74 331 8.0 14.0 0.00 0.00 0.00 20 1010.3
20260506000924 74 339 8.0 10.0 0.00 0.00 0.00 19 1010.3
20260505235922 74 288 6.0 9.0 0.00 0.00 0.00 19 1010.3
20260505235421 74 307 5.0 8.0 0.00 0.00 0.00 20 1010.2
20260505234419 72 274 8.0 8.0 0.00 0.00 0.00 21 1010.2
20260505233919 71 315 5.0 11.0 0.00 0.00 0.00 22 1010.3
20260505232917 70 358 9.0 10.0 0.00 0.00 0.00 21 1010.3
20260505232416 70 341 3.0 6.0 0.00 0.00 0.00 22 1010.4
20260505231414 69 225 3.0 5.0 0.00 0.00 0.00 21 1010.5
20260505230914 70 321 5.0 12.0 0.00 0.00 0.00 22 1010.4
20260505225410 70 318 6.0 12.0 0.00 0.00 0.00 22 1010.5
20260505224407 70 354 4.0 15.0 0.00 0.00 0.00 21 1010.6
20260505223907 70 352 13.0 13.0 0.00 0.00 0.00 22 1010.5
20260505222905 69 317 7.0 8.0 0.00 0.00 0.00 20 1010.6
20260505222404 69 358 5.0 8.0 0.00 0.00 0.00 19 1010.7
20260505221403 70 127 3.0 7.0 0.00 0.00 0.00 18 1010.8
20260505220902 71 45 3.0 18.0 0.00 0.00 0.00 17 1010.8
20260505215900 73 283 3.0 7.0 0.00 0.00 0.00 17 1010.7
20260505215359 73 11 2.0 5.0 0.00 0.00 0.00 18 1010.7
20260505214357 74 51 2.0 9.0 0.00 0.00 0.00 17 1010.8
20260505213857 74 0 6.0 10.0 0.00 0.00 0.00 19 1010.7
20260505212855 72 322 6.0 8.0 0.00 0.00 0.00 19 1010.9
20260505212354 71 223 2.0 6.0 0.00 0.00 0.00 18 1011.0
20260505211352 74 86 6.0 6.0 0.00 0.00 0.00 18 1010.9
20260505210851 73 327 4.0 13.0 0.00 0.00 0.00 19 1010.9
20260505205850 73 315 5.0 9.0 0.00 0.00 0.00 19 1011.0
20260505205350 73 41 9.0 10.0 0.00 0.00 0.00 19 1011.1
20260505204348 72 57 0.0 5.0 0.00 0.00 0.00 21 1011.1
20260505203846 71 339 3.0 7.0 0.00 0.00 0.00 21 1011.2
20260505203348 70 331 4.0 15.0 0.00 0.00 0.00 21 1011.2
20260505202845 71 358 5.0 7.0 0.00 0.00 0.00 21 1011.2
20260505202344 72 193 3.0 6.0 0.00 0.00 0.00 20 1011.2
20260505201343 71 50 1.0 13.0 0.00 0.00 0.00 20 1011.3
20260505200841 71 327 6.0 7.0 0.00 0.00 0.00 23 1011.2
20260505195840 70 34 7.0 10.0 0.00 0.00 0.00 21 1011.3
20260505195339 70 1 9.0 12.0 0.00 0.00 0.00 22 1011.4
20260505194337 69 356 3.0 9.0 0.00 0.00 0.00 22 1011.5
20260505193836 69 355 5.0 12.0 0.00 0.00 0.00 24 1011.5
20260505192835 68 8 10.0 11.0 0.00 0.00 0.00 24 1011.6
20260505192334 67 351 6.0 12.0 0.00 0.00 0.00 25 1011.5
20260505191332 67 43 10.0 12.0 0.00 0.00 0.00 25 1011.5
20260505190831 65 5 2.0 5.0 0.00 0.00 0.00 27 1011.5
20260505185830 64 78 4.0 13.0 0.00 0.00 0.00 27 1011.7
20260505185329 64 22 7.0 10.0 0.00 0.00 0.00 27 1011.7
20260505184329 63 6 4.0 10.0 0.00 0.00 0.00 29 1011.6
20260505183826 62 13 6.0 16.0 0.00 0.00 0.00 29 1011.7
20260505182324 62 46 9.0 13.0 0.00 0.00 0.00 29 1011.7
20260505181322 62 356 5.0 12.0 0.00 0.00 0.00 31 1011.5
20260505180821 62 23 8.0 9.0 0.00 0.00 0.00 31 1011.7
20260505175820 62 23 9.0 11.0 0.00 0.00 0.00 31 1011.6
20260505175319 61 13 9.0 10.0 0.00 0.00 0.00 32 1011.5
20260505174317 61 41 7.0 15.0 0.00 0.00 0.00 32 1011.6
20260505173816 61 3 9.0 12.0 0.00 0.00 0.00 33 1011.5
20260505172815 61 35 6.0 8.0 0.00 0.00 0.00 32 1011.4
20260505172314 62 24 5.0 8.0 0.00 0.00 0.00 33 1011.4
20260505171312 60 346 4.0 10.0 0.00 0.00 0.00 35 1011.4
20260505170811 60 187 3.0 10.0 0.00 0.00 0.00 34 1011.4
20260505165809 60 8 6.0 10.0 0.00 0.00 0.00 34 1011.4
20260505165309 59 0 2.0 6.0 0.00 0.00 0.00 35 1011.3
20260505164307 59 52 5.0 7.0 0.00 0.00 0.00 35 1011.4
20260505163806 59 58 2.0 9.0 0.00 0.00 0.00 36 1011.3
20260505162804 59 28 4.0 10.0 0.00 0.00 0.00 36 1011.3
20260505162306 59 0 2.0 11.0 0.00 0.00 0.00 38 1011.3
20260505161302 59 15 6.0 11.0 0.00 0.00 0.00 39 1011.4
20260505160801 59 9 8.0 10.0 0.00 0.00 0.00 38 1011.2
20260505152754 57 315 3.0 7.0 0.00 0.00 0.00 43 1011.2
20260505152254 57 25 3.0 5.0 0.00 0.00 0.00 44 1011.2
20260505151252 55 0 2.0 6.0 0.00 0.00 0.00 46 1011.1
20260505150751 55 0 3.0 5.0 0.00 0.00 0.00 46 1011.1
20260505124227 48 272 1.0 3.0 0.00 0.00 0.00 52 1010.4
20260505123727 48 226 1.0 3.0 0.00 0.00 0.00 52 1010.3
20260505122725 48 270 2.0 3.0 0.00 0.00 0.00 52 1010.3
20260505122224 48 272 2.0 3.0 0.00 0.00 0.00 52 1010.3
20260505121222 48 301 2.0 4.0 0.00 0.00 0.00 52 1010.2
20260505120721 48 291 3.0 3.0 0.00 0.00 0.00 53 1010.2
20260505115719 48 225 0.0 2.0 0.00 0.00 0.00 54 1010.1
20260505115219 48 225 2.0 2.0 0.00 0.00 0.00 53 1010.2
20260505114217 48 315 1.0 2.0 0.00 0.00 0.00 52 1010.1
20260505113716 48 342 1.0 2.0 0.00 0.00 0.00 52 1010.2
20260505112714 49 45 1.0 2.0 0.00 0.00 0.00 52 1010.0
20260505112214 49 270 2.0 4.0 0.00 0.00 0.00 52 1010.0
20260505111212 49 270 3.0 3.0 0.00 0.00 0.00 52 1010.0
20260505110711 49 277 2.0 3.0 0.00 0.00 0.00 52 1010.1
20260505102203 50 314 1.0 3.0 0.00 0.00 0.00 55 1010.1
20260505101201 51 358 2.0 3.0 0.00 0.00 0.00 56 1010.1
20260505100701 51 320 3.0 3.0 0.00 0.00 0.00 56 1010.2
20260505095658 51 315 1.0 2.0 0.00 0.00 0.00 56 1010.2
20260505095158 51 336 1.0 3.0 0.00 0.00 0.00 57 1010.2
20260505094157 51 311 1.0 2.0 0.00 0.00 0.00 57 1010.3
20260505093655 51 318 1.0 3.0 0.00 0.00 0.00 57 1010.1
20260505092652 51 350 1.0 3.0 0.00 0.00 0.00 57 1010.4
20260505092152 51 356 2.0 2.0 0.00 0.00 0.00 57 1010.4
20260505091150 51 314 1.0 2.0 0.00 0.00 0.00 57 1010.5